Powrót do katalogu

SL-12 R/B(2)

AktywnyGEO
NORAD 26381·ROCKET BODY·🇷🇺 Russia

Wystrzelony Jun 24, 2000 z Baikonur Cosmodrome

Loading…

TLE

ŚwieżeSource: Space-Track

Epoka: Sep 14, 2026, 13:07 UTC

1 26381U 00031D   26257.54659896 -.00000196  00000-0  00000+0 0  9994
2 26381  14.6464   2.6759 0010028 122.2379 236.8473  0.99443130 95193

Śledź SL-12 R/B(2) w czasie rzeczywistym z AllMySat

Download on the App Store